Location: Haut Kerinec
(48.0623°N, 4.4081°W)
Time: 03:12:56
(UTC+00:00)

ATLAS 2AS CENTAUR R/B - Pass Details

Date: 01 June 2020
Orbit: 925 x 1286 km, 63.7° (Epoch: 24 June)

Event Time Altitude Azimuth Distance (km) Brightness Sun altitude
Exits shadow 22:00:06 15° 170° (S) 2,923 4.4 -13.4°
Maximum altitude 22:05:55 35° 113° (ESE) 1,962 3.7 -13.9°
Drops below altitude 10° 22:12:55 10° 52° (NE) 3,276 5.3 -14.5°
Sets 22:15:57 0° 44° (NE) 4,223 6.1 -14.8°
